Regional Weather Roundup
Issued by NWS Charleston, SC

Current Version | Previous Version | Text Only | Print | Product List | Glossary Off
Versions: 1 2 3 4 5 6 7 8 9 10 11 12 13 14 15 16 17 18 19 20 21 22 23 24 25 26 27 28 29 30 31 32 33 34 35 36 37 38 39 40 41 42 43 44 45 46 47 48 49 50

819
ASUS42 KCHS 272127
RWRCHS

REGIONAL WEATHER ROUNDUP
NATIONAL WEATHER SERVICE CHARLESTON SC
500 PM EDT SAT MAY 27 2017

NOTE: "FAIR" INDICATES FEW OR NO CLOUDS BELOW 12,000 FEET WITH NO
SIGNIFICANT WEATHER AND/OR OBSTRUCTIONS TO VISIBILITY.

NOT ALL STATIONS ARE QUALITY CONTROLLED. USE DATA WITH CAUTION...
ESPECIALLY DEWPOINT OBSERVATIONS.

SCZ027-030-031-034>040-042>050-272200-
...SOUTHEAST SOUTH CAROLINA...

CITY           SKY/WX    TMP DP  RH WIND       PRES   REMARKS
N CHARLESTON   MOSUNNY   91  60  35 W12       29.93F HX  90
WATERFRONT PRK   N/A     83  70  64 SW15      29.93F
JOHNS ISLAND   FAIR      84  70  61 SW15G21   29.95S
PINOPOLIS        N/A     86  66  51 W14       29.86F
MONCKS CORNER  FAIR      88  57  35 SW8G17    29.92F
SUMMERVILLE    FAIR      90  63  40 SW7       29.93F HX  90
BEAUFORT MCAS  SUNNY     92  63  38 W15       29.95F HX  93
BEAUFORT ARPT  FAIR      91  63  38 W12G17    29.95F HX  92
HILTON HEAD IS SUNNY     88  70  55 S12       29.97F HX  92
WALTERBORO     CLEAR     90  61  37 W13G24    29.94F
ALLENDALE      FAIR      90  57  33 VRB6G17   29.93F

...SOUTHERN MIDLANDS AND PEE DEE...

CITY           SKY/WX    TMP DP  RH WIND       PRES   REMARKS
GEORGETOWN     FAIR      88  61  40 SW9       29.93S
KINGSTREE      FAIR      90  61  37 W9G16     29.90F
ORANGEBURG     SUNNY     90  61  37 W14G23    29.93F HX  90
BARNWELL       FAIR      91  61  35 SW9G16    29.93F HX  91
AIKEN          FAIR      88  59  37 SW12G20   29.97F
MANNING        FAIR      90  68  48 W18       29.91F HX  93
COLUMBIA       MOSUNNY   91  62  37 W10G22    29.90F HX  91
SUMTER         SUNNY     89  64  43 SW14      29.88F HX  91
FLORENCE       SUNNY     89  65  44 W14       29.89F HX  91
MYRTLE BEACH   MOSUNNY   90  64  43 W14       29.92F HX  91
N MYRTLE BEACH MOSUNNY   83  70  64 SW20      29.91F

$$

GAZ063-065-086>088-099>101-113>116-118-119-134>141-150-272200-
...SOUTHEAST GEORGIA...

CITY           SKY/WX    TMP DP  RH WIND       PRES   REMARKS
SAVANNAH ARPT  SUNNY     96  59  29 W12       29.97F HX  95
HUNTER AAF     SUNNY     93  68  44 W12       29.95F HX  97
FORT STEWART   SUNNY     92  60  34 W12       29.96F HX  91
STATESBORO     SUNNY     91  58  32 W12G17    29.96F HX  90
SYLVANIA       CLEAR     91  64  40 W9        29.95F HX  92
CLAXTON        FAIR      89  60  37 SW9G18    29.97F

...CSRA...CENTRAL AND FAR SOUTHEAST GEORGIA...

CITY           SKY/WX    TMP DP  RH WIND       PRES   REMARKS
THOMSON        SUNNY     89  54  30 NW9       29.99F
AUGUSTA-BUSH   SUNNY     93  58  30 W15G23    29.92F HX  92
AUGUSTA-DANIEL SUNNY     91  52  26 W9        29.95F
SWAINSBORO     FAIR      90  59  35 W9G17     29.97F
VIDALIA        SUNNY     90  61  37 SW12G20   29.99F
EASTMAN        FAIR      90  36  15 SW8       30.01F
HAZLEHURST     FAIR      91  60  34 W8        29.99S HX  90
ALMA           SUNNY     92  59  33 W8        30.00F HX  91
WAYCROSS       SUNNY     94  64  36 W12       30.00F HX  96
JESUP          FAIR      91  52  25 W9        29.99S
BAXLEY         FAIR      91  64  40 W8        29.99F HX  93
BRUNSWICK      SUNNY     93  64  38 W7        29.99S HX  95
SAINT SIMONS   SUNNY     86  70  58 SE10      29.99F HX  90

$$

SCZ027-028-034-036>038-045-046-048>050-GAZ119-141-272200-
...LAKE AND SUPPLEMENTAL COASTAL OBSERVATIONS...

STATION/POSITION TIME  TEMP    WIND        PRES    WAVE   SWELL
                       AIR SEA DIR/SP/G            HT/PER HT/PER/DIR
                 (UTC) (F)     (DEG/KT/KT) (MB)    (FT/S) (FT/S/D)
WINYAH BAY       2045   85     210/ 13     1013.0S
LAKE MURRAY      2030   85     240/ 11/ 14 1012.2F
ACE BASIN NERRS  2030   90     230/  4     1014.0F
FORT PULASKI     2100   86     190/  6/ 10 1014.9
SAPELO ISLAND    2045   89     170/  7     1015.0F

$$

ANZ835-935-AMZ111-154-330-350-352-354-370-450-454-472-272200-
...C-MAN AND BUOY OBSERVATIONS...

STATION/POSITION TIME  TEMP    WIND        PRES    WAVE   SWELL
                       AIR SEA DIR/SP/G            HT/PER HT/PER/DIR
                 (UTC) (F)     (DEG/KT/KT) (MB)    (FT/S) (FT/S/D)
BUOY 41004       2110   77 75  220/ 14/ 16 1014.5
BUOY 41008       2050   79 79  160/ 12/ 14 1015.6F   2/ 8   2/110/ 8
FOLLY BEACH CMAN 2100   79     200/ 15/ 17 1014.8F
CAPERS NEARSHORE 2108   83 77  220/ 16/ 19 1013.7F
FRIPP NEARSHORE  2108   79 78  210/ 14/ 19 1014.5F


STATION/POSITION TIME  TEMP    WIND        PRES    WAVE   SWELL
                       AIR SEA DIR/SP/G            HT/PER HT/PER/DIR
                 (UTC) (F)     (DEG/KT/KT) (MB)    (FT/S) (FT/S/D)
5E ST. MARYS GA  2100      80                N/A     2/ 8
FRYING PAN BUOY  2110   76 76  220/ 17/ 21 1013.5
BUOY 41025       2050   78 77  230/ 16/ 19 1012.8F   3/ 6   2/170/ 7
CAPE LOOKOUT NC  2100   78     200/ 12/ 15 1012.2F
BUOY 41002       2050   76 78  240/ 12/ 14 1016.1S   3/ 7   2/150/ 7
BUOY 41010       2110   80 80  210/  4/  6 1017.3
ST AUGUSTINE FL  2100   77 80  110/  8/  8 1017.3F


$$




USA.gov is the U.S. government's official web portal to all federal, state and local government web resources and services.